RAZAKSAT

Satellite information

Favourite Embed

Satellite Type and Status

PAYLOADIN ORBIT

Key statistics

Satellite RAZAKSAT at a glance.

Uptime

5837

Days in orbit

Revolutions

≈ 14.7

Per day

Orbit

LEO

Low Earth Orbit

Inclination

9.0

Latest

Satellite identification and parameters

Extended collection of information and parameters for RAZAKSAT.

Object identification

Identified? True

Debris? False

Object name: RAZAKSAT

International designator: 2009-037A

Object number (NORAD): 35578

Object ID (CCSDS): 35578

Country: MALAYSIA (MALA)

Current information (Y/N): Y

RCS size: MEDIUM

Orbital parameters

Period: 97.974 minutes

Inclination: 8.9874 deg

SMA: 7039.899 km

Apoapsis: 672.777 km

Periapsis: 650.751 km

RAAN: 75.6162 deg

Eccentricy: 0.0015644

Argument of periapsis: 5.3924 deg

Mean anomaly: 354.6434 deg

Mean motion: 14.69782584 rev/day

Mean motion (dot): 0.0000098 rev/day2

B* drag term: 0.00006715 1/REarth

Two-line elements (TLE)

Creation date: July 6, 2025, 10:56 p.m.

Reference frame: TEME

Reference center: EARTH

Epoch: July 6, 2025, 9:40 p.m. UTC

TLE line 0: 0 RAZAKSAT

TLE line 1: 1 35578U 09037A 25187.90294828 .00000980 00000-0 67150-4 0 9992

TLE line 2: 2 35578 8.9874 75.6162 0015644 5.3924 354.6434 14.69782584858235

Live tracking on map

Real-time ground track for satellite RAZAKSAT.

In-orbit conjunctions

There are no conjunctions computed for RAZAKSAT, at the moment. Check back to stay up to date, as we update our databases every day.

Go to all conjunctions

Associated space launch

RazakSAT is a Malaysian Earth observation satellite carrying a high-resolution camera. It was the first and only operational satellite to be put in orbit by SpaceX's Falcon 1.

RAZAKSAT was lifted into orbit during the mission ‘Falcon 1 | RazakSAT’, on board a Falcon 1 space rocket.

The launch took place on July 14, 2009, 3:36 a.m. from Omelek Island.

For more information about the launch, click the button.

Launch to space Falcon 1 | RazakSAT
Falcon 1 | RazakSAT

Agency: N/A

Status: Launch Successful

Launch date: July 14, 2009, 3:36 a.m. UTC

Rocket: Falcon 1

Launch pad: Omelek Island

Location: Ronald Reagan Ballistic Missile Defense Test Site, Kwajalein Atoll, Marshall Islands

...

Latest news about this satellite

There are no fresh news available about this satellite. Check back as we update our databases every day.


Newsletter sign-up

Weekly statistics, charts and insights to help you stay on top of the space industry.